Date String (YYYY-MM-DD hh:mm:ss) UTC,Instrument flags,absolute air pressure of the measurement (hPa),sample flow rate (lpm),inlet stack bypass flow (lpm),air temperature of the measurement (°C),ambient temperature measured by the external sensor (°C),aerosol sample conditioner tube jacket temperature (°C),OPC LED temperature (°C),internal box temperature (°C),relative humidity of the measurement (%),span deviation,mass concentration of particles derived from Lorenz-Mie calculation of OPC scattering (μg/m³),mass concentration of particles derived from Lorenz-Mie calculation of OPC scattering (μg/m³),mass concentration of particles derived from Lorenz-Mie calculation of OPC scattering (μg/m³)
DateTimeUTC,F1_M11,P_M11,Q1_M11,Q2_M11,T1_M11,T2_M11,T3_M11,T4_M11,T5_M11,U1_M11,ZSPAN_M11,X2_M11,X0_M11,X1_M11
2023-08-29 02:00:00,SystemResetWarning,0838.9,4.99,000.00,028.7,026.8,000.0,037.0,030.1,35.1,0000.0,0003.13,0005.33,0002.41
2023-08-29 02:01:00,SystemResetWarning,0838.9,5.02,000.00,028.8,025.1,000.0,036.9,030.0,34.9,0000.0,0003.17,0006.35,0002.45
2023-08-29 02:02:00,SystemResetWarning,0838.9,4.98,000.00,029.0,024.4,000.0,036.8,029.8,34.5,0000.0,0003.21,0006.69,0002.48
2023-08-29 02:03:00,SystemResetWarning,0838.9,4.99,000.00,029.0,024.4,000.0,036.8,029.6,34.5,0000.0,0003.30,0007.02,0002.52
2023-08-29 02:04:00,SystemResetWarning,0839.1,5.02,000.00,028.9,024.8,000.0,036.9,029.6,34.5,0000.0,0003.35,0007.15,0002.56
2023-08-29 02:05:00,SystemResetWarning,0839.1,5.01,000.00,029.0,025.2,000.0,037.0,029.7,34.5,0000.0,0003.40,0007.34,0002.59
2023-08-29 02:06:00,SystemResetWarning,0839.1,5.00,000.00,029.0,025.6,000.0,037.0,029.8,34.6,0000.0,0003.47,0007.55,0002.60
2023-08-29 02:07:00,SystemResetWarning,0839.1,5.00,000.00,029.0,025.9,000.0,037.1,029.8,34.4,0000.0,0003.52,0008.11,0002.60
2023-08-29 02:08:00,SystemResetWarning,0839.1,5.00,000.00,029.0,026.2,000.0,037.1,029.9,34.3,0000.0,0003.51,0008.40,0002.58
2023-08-29 02:09:00,SystemResetWarning,0839.2,5.00,000.00,029.0,026.4,000.0,037.2,030.0,34.4,0000.0,0003.46,0008.27,0002.56
2023-08-29 02:10:00,SystemResetWarning,0839.2,5.00,000.00,029.0,026.6,000.0,037.2,030.0,34.4,0000.0,0003.46,0008.18,0002.57
2023-08-29 02:11:00,SystemResetWarning,0839.2,5.00,000.00,029.0,026.8,000.0,037.2,030.1,34.5,0000.0,0003.42,0008.12,0002.53
2023-08-29 02:12:00,SystemResetWarning,0839.1,5.00,000.00,029.1,026.9,000.0,037.3,030.1,34.6,0000.0,0003.42,0007.75,0002.48
2023-08-29 02:13:00,SystemResetWarning,0839.1,5.00,000.00,029.1,027.0,000.0,037.3,030.1,34.6,0000.0,0003.36,0007.32,0002.41
2023-08-29 02:14:00,SystemResetWarning,0838.9,5.00,000.00,029.1,027.1,000.0,037.3,030.1,34.6,0000.0,0003.27,0006.93,0002.37
2023-08-29 02:15:00,SystemResetWarning,0838.9,5.00,000.00,029.1,027.1,000.0,037.4,030.2,34.6,0000.0,0003.25,0007.01,0002.30
2023-08-29 02:16:00,SystemResetWarning,0838.9,5.00,000.00,029.1,027.2,000.0,037.4,030.2,34.5,0000.0,0003.24,0007.02,0002.25
2023-08-29 02:17:00,SystemResetWarning,0838.9,5.00,000.00,029.1,027.2,000.0,037.4,030.2,34.3,0000.0,0003.21,0006.92,0002.20
2023-08-29 02:18:00,SystemResetWarning,0838.9,4.99,000.00,029.1,026.0,000.0,037.3,030.0,34.2,0000.0,0003.16,0006.42,0002.16
2023-08-29 02:19:00,SystemResetWarning,0838.9,5.01,000.00,029.0,024.6,000.0,037.2,029.8,34.2,0000.0,0003.18,0005.75,0002.12
2023-08-29 02:20:00,SystemResetWarning,0838.9,5.00,000.00,028.9,024.2,000.0,037.1,029.6,34.3,0000.0,0003.22,0006.00,0002.09
2023-08-29 02:21:00,SystemResetWarning,0838.9,5.00,000.00,028.8,024.5,000.0,037.1,029.4,34.4,0000.0,0003.24,0006.15,0002.04
2023-08-29 02:22:00,SystemResetWarning,0838.9,5.00,000.00,028.7,024.9,000.0,037.2,029.5,34.5,0000.0,0003.23,0007.24,0002.02
2023-08-29 02:23:00,SystemResetWarning,0838.9,5.01,000.00,028.7,025.2,000.0,037.2,029.6,34.4,0000.0,0003.19,0007.77,0001.98
2023-08-29 02:24:00,SystemResetWarning,0838.9,5.00,000.00,028.6,025.6,000.0,037.2,029.7,34.4,0000.0,0003.22,0007.86,0001.96
2023-08-29 02:25:00,SystemResetWarning,0838.9,5.00,000.00,028.6,025.9,000.0,037.1,029.7,34.4,0000.0,0003.23,0008.01,0001.94
2023-08-29 02:26:00,SystemResetWarning,0838.9,4.99,000.00,028.6,026.2,000.0,037.1,029.8,34.5,0000.0,0003.24,0008.04,0001.93
2023-08-29 02:27:00,SystemResetWarning,0838.9,5.00,000.00,028.6,026.4,000.0,037.1,029.8,34.5,0000.0,0003.25,0008.07,0001.93
2023-08-29 02:28:00,SystemResetWarning,0838.9,5.00,000.00,028.6,026.5,000.0,037.1,029.9,34.4,0000.0,0003.22,0007.99,0001.92
2023-08-29 02:29:00,SystemResetWarning,0838.9,5.00,000.00,028.7,026.7,000.0,037.1,029.9,34.3,0000.0,0003.25,0007.98,0001.95
2023-08-29 02:30:00,SystemResetWarning,0838.9,4.99,000.00,028.7,026.8,000.0,037.1,029.9,34.1,0000.0,0003.22,0007.99,0001.96
2023-08-29 02:31:00,SystemResetWarning,0838.9,4.99,000.00,028.7,026.9,000.0,037.1,030.0,34.0,0000.0,0003.16,0008.01,0001.94
2023-08-29 02:32:00,SystemResetWarning,0839.1,5.00,000.00,028.7,027.0,000.0,037.2,030.0,33.8,0000.0,0003.14,0007.92,0001.95
2023-08-29 02:33:00,SystemResetWarning,0839.1,5.00,000.00,028.7,027.1,000.0,037.2,030.0,33.5,0000.0,0003.17,0007.82,0001.96
2023-08-29 02:34:00,SystemResetWarning,0839.1,5.00,000.00,028.7,027.1,000.0,037.2,030.1,33.6,0000.0,0003.19,0007.53,0002.00
2023-08-29 02:35:00,SystemResetWarning,0839.1,5.00,000.00,028.7,027.2,000.0,037.2,030.1,33.6,0000.0,0003.21,0007.50,0002.02
2023-08-29 02:36:00,SystemResetWarning,0839.1,5.00,000.00,028.8,027.3,000.0,037.2,030.1,33.6,0000.0,0003.26,0007.49,0002.06
2023-08-29 02:37:00,SystemResetWarning,0839.1,4.99,000.00,028.8,026.4,000.0,037.1,030.1,33.4,0000.0,0003.25,0007.49,0002.08
2023-08-29 02:38:00,SystemResetWarning,0839.2,5.00,000.00,028.7,024.7,000.0,037.0,029.7,33.2,0000.0,0003.22,0007.41,0002.07
2023-08-29 02:39:00,SystemResetWarning,0839.2,5.00,000.00,028.6,024.2,000.0,036.9,029.5,33.4,0000.0,0003.25,0007.46,0002.11
2023-08-29 02:40:00,SystemResetWarning,0839.2,5.01,000.00,028.4,024.3,000.0,036.9,029.3,33.8,0000.0,0003.24,0007.44,0002.13
2023-08-29 02:41:00,SystemResetWarning,0839.3,5.00,000.00,028.3,024.7,000.0,036.9,029.4,33.9,0000.0,0003.24,0007.36,0002.15
2023-08-29 02:42:00,SystemResetWarning,0839.3,4.98,000.00,028.3,025.1,000.0,036.9,029.5,34.2,0000.0,0003.28,0007.26,0002.19
2023-08-29 02:43:00,SystemResetWarning,0839.3,5.00,000.00,028.3,025.5,000.0,036.9,029.6,34.3,0000.0,0003.27,0007.30,0002.21
2023-08-29 02:44:00,SystemResetWarning,0839.4,5.00,000.00,028.3,025.9,000.0,036.9,029.7,34.1,0000.0,0003.27,0006.75,0002.24
2023-08-29 02:45:00,SystemResetWarning,0839.4,5.00,000.00,028.3,026.2,000.0,036.9,029.7,33.9,0000.0,0003.29,0006.24,0002.28
2023-08-29 02:46:00,SystemResetWarning,0839.4,5.01,000.00,028.4,026.4,000.0,036.9,029.8,33.8,0000.0,0003.29,0006.16,0002.31
2023-08-29 02:47:00,SystemResetWarning,0839.4,4.99,000.00,028.4,026.6,000.0,036.9,029.8,33.5,0000.0,0003.26,0006.02,0002.31
2023-08-29 02:48:00,SystemResetWarning,0839.4,4.99,000.00,028.4,026.8,000.0,036.9,029.9,33.2,0000.0,0003.32,0006.27,0002.35
2023-08-29 02:49:00,SystemResetWarning,0839.3,5.00,000.00,028.4,026.9,000.0,036.9,029.9,33.3,0000.0,0003.36,0006.30,0002.39
2023-08-29 02:50:00,SystemResetWarning,0839.4,5.00,000.00,028.4,027.0,000.0,036.9,029.9,33.3,0000.0,0003.37,0006.35,0002.40
2023-08-29 02:51:00,SystemResetWarning,0839.4,5.00,000.00,028.5,027.1,000.0,036.9,030.0,33.1,0000.0,0003.35,0006.26,0002.38
2023-08-29 02:52:00,SystemResetWarning,0839.4,5.00,000.00,028.5,027.2,000.0,037.0,030.0,33.1,0000.0,0003.37,0006.82,0002.38
2023-08-29 02:53:00,SystemResetWarning,0839.4,5.00,000.00,028.5,027.2,000.0,037.0,030.1,33.0,0000.0,0003.35,0007.02,0002.37
2023-08-29 02:54:00,SystemResetWarning,0839.3,5.00,000.00,028.5,027.3,000.0,037.0,030.1,32.8,0000.0,0003.36,0007.00,0002.39
2023-08-29 02:55:00,SystemResetWarning,0839.4,5.00,000.00,028.6,027.4,000.0,037.0,030.1,32.9,0000.0,0003.33,0006.86,0002.35
2023-08-29 02:56:00,SystemResetWarning,0839.4,5.00,000.00,028.6,027.3,000.0,037.0,030.1,32.7,0000.0,0003.29,0006.74,0002.30
2023-08-29 02:57:00,SystemResetWarning,0839.4,4.98,000.00,028.6,026.0,000.0,036.9,029.9,32.5,0000.0,0003.27,0006.70,0002.25
2023-08-29 02:58:00,SystemResetWarning,0839.4,5.01,000.00,028.5,024.5,000.0,036.8,029.7,32.6,0000.0,0003.28,0006.74,0002.23
2023-08-29 02:59:00,SystemResetWarning,0839.3,5.01,000.00,028.4,024.2,000.0,036.7,029.5,33.0,0000.0,0003.24,0006.47,0002.19
